When you browse on this site, cookies collect data to enhance your experience and personalize the content and advertising you see.
Visit our Privacy Policy to learn more. By continuing to use the site, you agree to this use of cookies and data.
  • In Deutschland
  • Länderverzeichnis
  • Für 7 Tage
  • Wassertemperatur
  • Wetterkarte
  • Widgets
  • user-avatar
    Anmelden

    Stündliche Wetter Sherpur

    Heute, 19 November, Dienstag

    Zeit Temperatur Niederschläge Wind Luftdruck Luftfeuchtigkeit
    00:00 +7°C° 0 mm 1 m/S 609 mmHg 30%
    01:00 +7°C° 0 mm 1 m/S 609 mmHg 29%
    02:00 +7°C° 0 mm 1 m/S 609 mmHg 29%
    03:00 +6°C° 0 mm 1 m/S 608 mmHg 29%
    04:00 +6°C° 0 mm 1 m/S 608 mmHg 29%
    05:00 +6°C° 0 mm 1 m/S 608 mmHg 28%
    06:00 +6°C° 0 mm 1 m/S 608 mmHg 28%
    07:00 +7°C° 0 mm 1 m/S 608 mmHg 28%
    08:00 +7°C° 0 mm 1 m/S 609 mmHg 28%
    09:00 +9°C° 0 mm 1 m/S 609 mmHg 27%
    10:00 +10°C° 0 mm 1 m/S 610 mmHg 26%
    11:00 +11°C° 0 mm 1 m/S 610 mmHg 26%
    12:00 +12°C° 0 mm 1 m/S 610 mmHg 25%
    13:00 +12°C° 0 mm 1 m/S 610 mmHg 24%
    14:00 +13°C° 0 mm 1 m/S 609 mmHg 24%
    15:00 +12°C° 0 mm 1 m/S 609 mmHg 26%
    16:00 +10°C° 0 mm 0 m/S 609 mmHg 29%
    17:00 +10°C° 0 mm 0 m/S 608 mmHg 31%
    18:00 +9°C° 0 mm 0 m/S 608 mmHg 32%
    19:00 +8°C° 0 mm 0 m/S 608 mmHg 33%
    20:00 +7°C° 0 mm 0 m/S 608 mmHg 34%
    21:00 +7°C° 0 mm 0 m/S 608 mmHg 34%
    22:00 +7°C° 0 mm 0 m/S 608 mmHg 34%
    23:00 +6°C° 0 mm 0 m/S 607 mmHg 35%

    Morgen, 20 November, Mittwoch

    Zeit Temperatur Niederschläge Wind Luftdruck Luftfeuchtigkeit
    00:00 +6°C° 0 mm 0 m/S 607 mmHg 35%
    01:00 +6°C° 0 mm 0 m/S 607 mmHg 35%
    02:00 +5°C° 0 mm 0 m/S 607 mmHg 34%
    03:00 +5°C° 0 mm 0 m/S 607 mmHg 34%
    04:00 +5°C° 0 mm 0 m/S 607 mmHg 34%
    05:00 +5°C° 0 mm 0 m/S 606 mmHg 34%
    06:00 +5°C° 0 mm 0 m/S 607 mmHg 34%
    07:00 +5°C° 0 mm 0 m/S 607 mmHg 34%
    08:00 +6°C° 0 mm 0 m/S 607 mmHg 33%
    09:00 +7°C° 0 mm 0 m/S 608 mmHg 30%
    10:00 +9°C° 0 mm 0 m/S 608 mmHg 27%
    11:00 +10°C° 0 mm 0 m/S 609 mmHg 24%
    12:00 +12°C° 0 mm 1 m/S 608 mmHg 24%
    13:00 +12°C° 0 mm 1 m/S 608 mmHg 24%
    14:00 +12°C° 0 mm 1 m/S 608 mmHg 24%
    15:00 +12°C° 0 mm 1 m/S 608 mmHg 26%
    16:00 +11°C° 0 mm 1 m/S 608 mmHg 28%
    17:00 +11°C° 0 mm 1 m/S 607 mmHg 30%
    18:00 +10°C° 0.2 mm 1 m/S 608 mmHg 40%
    19:00 +9°C° 0.2 mm 1 m/S 608 mmHg 50%
    20:00 +7°C° 0.2 mm 2 m/S 609 mmHg 60%
    21:00 +7°C° 0.6 mm 1 m/S 609 mmHg 68%
    22:00 +6°C° 0.6 mm 1 m/S 608 mmHg 75%
    23:00 +6°C° 0.6 mm 1 m/S 608 mmHg 83%

    übermorgen, 21 November, Donnerstag

    Zeit Temperatur Niederschläge Wind Luftdruck Luftfeuchtigkeit
    00:00 +5°C° 0.3 mm 1 m/S 608 mmHg 85%
    01:00 +5°C° 0.3 mm 1 m/S 608 mmHg 86%
    02:00 +5°C° 0.3 mm 1 m/S 608 mmHg 88%
    03:00 +5°C° 0.2 mm 1 m/S 608 mmHg 89%
    04:00 +4°C° 0.2 mm 1 m/S 608 mmHg 90%
    05:00 +4°C° 0.2 mm 1 m/S 607 mmHg 92%
    06:00 +4°C° 0 mm 1 m/S 607 mmHg 90%
    07:00 +4°C° 0 mm 1 m/S 608 mmHg 88%
    08:00 +4°C° 0 mm 1 m/S 608 mmHg 86%
    09:00 +5°C° 0.2 mm 1 m/S 608 mmHg 85%
    10:00 +5°C° 0.2 mm 1 m/S 608 mmHg 83%
    11:00 +5°C° 0.2 mm 1 m/S 608 mmHg 82%
    12:00 +5°C° 0.7 mm 1 m/S 607 mmHg 86%
    13:00 +5°C° 0.7 mm 1 m/S 607 mmHg 90%
    14:00 +4°C° 0.7 mm 1 m/S 607 mmHg 95%
    15:00 +4°C° 0.7 mm 1 m/S 607 mmHg 95%
    16:00 +4°C° 0.7 mm 1 m/S 607 mmHg 95%
    17:00 +4°C° 0.7 mm 1 m/S 607 mmHg 95%
    18:00 +4°C° 0.4 mm 1 m/S 607 mmHg 95%
    19:00 +4°C° 0.4 mm 1 m/S 607 mmHg 95%
    20:00 +5°C° 0.4 mm 1 m/S 608 mmHg 95%
    21:00 +4°C° 0.5 mm 2 m/S 608 mmHg 95%
    22:00 +4°C° 0.5 mm 2 m/S 608 mmHg 95%
    23:00 +4°C° 0.5 mm 2 m/S 608 mmHg 95%

    22 November, Freitag

    Zeit Temperatur Niederschläge Wind Luftdruck Luftfeuchtigkeit
    00:00 +4°C° 0.8 mm 2 m/S 608 mmHg 96%
    01:00 +5°C° 0.8 mm 1 m/S 607 mmHg 96%
    02:00 +5°C° 0.8 mm 1 m/S 607 mmHg 96%
    03:00 +5°C° 1 mm 1 m/S 607 mmHg 96%
    04:00 +5°C° 1 mm 1 m/S 607 mmHg 96%
    05:00 +5°C° 1 mm 1 m/S 607 mmHg 96%
    06:00 +5°C° 0.7 mm 1 m/S 607 mmHg 96%
    07:00 +5°C° 0.7 mm 1 m/S 608 mmHg 95%
    08:00 +5°C° 0.7 mm 1 m/S 608 mmHg 94%
    09:00 +5°C° 0.4 mm 1 m/S 608 mmHg 94%
    10:00 +6°C° 0.4 mm 1 m/S 608 mmHg 94%
    11:00 +6°C° 0.4 mm 1 m/S 608 mmHg 94%
    12:00 +6°C° 0.5 mm 1 m/S 608 mmHg 94%
    13:00 +6°C° 0.5 mm 1 m/S 608 mmHg 94%
    14:00 +6°C° 0.5 mm 1 m/S 608 mmHg 95%
    15:00 +6°C° 0.1 mm 1 m/S 608 mmHg 94%
    16:00 +6°C° 0.1 mm 1 m/S 608 mmHg 93%
    17:00 +6°C° 0.1 mm 1 m/S 608 mmHg 92%
    18:00 +6°C° 0.1 mm 1 m/S 608 mmHg 91%
    19:00 +5°C° 0.1 mm 1 m/S 609 mmHg 91%
    20:00 +5°C° 0.1 mm 1 m/S 609 mmHg 90%
    21:00 +5°C° 0 mm 1 m/S 609 mmHg 89%
    22:00 +5°C° 0 mm 1 m/S 609 mmHg 88%
    23:00 +3°C° 0 mm 0 m/S 609 mmHg 86%

    23 November, Samstag

    Zeit Temperatur Niederschläge Wind Luftdruck Luftfeuchtigkeit
    00:00 +4°C° 0 mm 1 m/S 609 mmHg 85%
    01:00 +4°C° 0 mm 1 m/S 609 mmHg 84%
    02:00 +4°C° 0 mm 1 m/S 609 mmHg 83%
    03:00 +3°C° 0 mm 1 m/S 609 mmHg 81%
    04:00 +3°C° 0 mm 1 m/S 609 mmHg 79%
    05:00 +3°C° 0 mm 1 m/S 609 mmHg 76%
    06:00 +3°C° 0 mm 1 m/S 609 mmHg 74%
    07:00 +3°C° 0 mm 1 m/S 609 mmHg 72%
    08:00 +3°C° 0 mm 1 m/S 610 mmHg 69%
    09:00 +4°C° 0 mm 1 m/S 610 mmHg 67%
    10:00 +5°C° 0 mm 1 m/S 610 mmHg 64%
    11:00 +5°C° 0 mm 0 m/S 610 mmHg 61%
    12:00 +6°C° 0 mm 0 m/S 610 mmHg 60%
    13:00 +7°C° 0 mm 1 m/S 609 mmHg 58%
    14:00 +8°C° 0 mm 1 m/S 609 mmHg 56%
    15:00 +7°C° 0 mm 1 m/S 609 mmHg 57%
    16:00 +7°C° 0 mm 1 m/S 609 mmHg 58%
    17:00 +6°C° 0 mm 1 m/S 609 mmHg 59%
    18:00 +6°C° 0 mm 1 m/S 609 mmHg 59%
    19:00 +5°C° 0 mm 1 m/S 610 mmHg 59%
    20:00 +5°C° 0 mm 1 m/S 610 mmHg 59%
    21:00 +5°C° 0 mm 1 m/S 610 mmHg 60%
    22:00 +5°C° 0 mm 1 m/S 610 mmHg 60%
    23:00 +4°C° 0 mm 1 m/S 610 mmHg 61%

    24 November, Sonntag

    Zeit Temperatur Niederschläge Wind Luftdruck Luftfeuchtigkeit
    00:00 +4°C° 0 mm 1 m/S 609 mmHg 61%
    01:00 +4°C° 0 mm 1 m/S 609 mmHg 61%
    02:00 +4°C° 0 mm 1 m/S 609 mmHg 61%
    03:00 +3°C° 0 mm 1 m/S 609 mmHg 61%
    04:00 +3°C° 0 mm 1 m/S 609 mmHg 61%
    05:00 +2°C° 0 mm 1 m/S 609 mmHg 61%
    06:00 +3°C° 0 mm 1 m/S 609 mmHg 60%
    07:00 +3°C° 0 mm 1 m/S 609 mmHg 59%
    08:00 +3°C° 0 mm 1 m/S 609 mmHg 57%
    09:00 +4°C° 0 mm 1 m/S 610 mmHg 54%
    10:00 +5°C° 0 mm 1 m/S 610 mmHg 51%
    11:00 +6°C° 0 mm 1 m/S 610 mmHg 49%
    12:00 +6°C° 0 mm 1 m/S 609 mmHg 48%
    13:00 +7°C° 0 mm 1 m/S 609 mmHg 47%
    14:00 +7°C° 0 mm 1 m/S 609 mmHg 47%
    15:00 +7°C° 0 mm 1 m/S 609 mmHg 49%
    16:00 +6°C° 0 mm 1 m/S 609 mmHg 50%
    17:00 +6°C° 0 mm 1 m/S 609 mmHg 52%
    18:00 +5°C° 0 mm 1 m/S 609 mmHg 51%
    19:00 +5°C° 0 mm 1 m/S 609 mmHg 51%
    20:00 +4°C° 0 mm 1 m/S 609 mmHg 50%
    21:00 +4°C° 0 mm 1 m/S 609 mmHg 50%
    22:00 +4°C° 0 mm 1 m/S 609 mmHg 49%
    23:00 +4°C° 0 mm 1 m/S 609 mmHg 48%
    Mehr zeigen